NOAA 16 DEB, 41400

Orbit data source: Space-Track

NOAA 16 DEB, 41400 is space debris in SSO originally from a launch on Thu, 21 Sep 2000 UTC launched from the Air Force Western Test Range (AFWTR). Debris objects in space refer to the collection of defunct objects orbiting the Earth. Examples of debris include non-operational satellites, rocket bodies, and fragments generated from explosions, collisions, or faulty payload assembly.

Loading next visibility...
Identifier
41400, 2000-055KD
Orbit
SSO
Country
Flag of USUS
Related business
Manufacturer
Unknown
Mission
Spacecraft
Bus & Motor
Unknown
Mass
Unknown
Launch date (UTC)
2000-09-21 (26 years ago)
Launch vehicle
Unknown
Launch site
Air Force Western Test Range (AFWTR)
Object type
Payload
Rocket body
Debris
Shape & HBR
Unknown shape, 0.1 m
Radar Cross Section
Medium (>0.1 m² and <1 m²)

Expand to show TLE details & history
Last TLE update: 11 hours ago

TLE from 11 hours ago
0 NOAA 16 DEB
1 41400U 00055KD  26150.06514800  .00005898  00000-0  20458-2 0  9998
2 41400  98.7165 248.3814 0013583 305.4861  54.5056 14.35907244529925
Epoch: 2026-05-30T01:33Z
TLE epoch observation values (Epoch: 2026-05-30T01:33:48.787Z)
Latitude
-0.00003°
Longitude
-22.6584°
Altitude
769.358 km
Speed
7.472 km/s
True Right ascension
16h 33m 31s
True Declination
0° 00' 00"
Sunlit
Object was in full shadow at epoch
Visualization orbit readout
Latitude
Unknown
Longitude
Unknown
Altitude
Unknown
Speed
Unknown
Apparent Right ascension
Unknown
Apparent Declination
Unknown
Sunlit
N/A
Visualization observer readout
Local Sidereal Time
22:06:18
Azimuth
Unknown
Elevation
Unknown
Doppler factor
Unknown
Orbital elements
Apogee altitude
778.899 km
Perigee altitude
759.482 km
Semi-major axis
7,147.328 km
Eccentricity
0.00136
Inclination
98.7165°
RAAN
248.3814°
Arg. of periapsis
305.4861°
True anomaly
54.63245°
Mean anomaly
54.5056°
Eccentric anomaly
54.56901°
Mean motion
3.59193 °/min
Orbital period
100.22 mins
BSTAR
0.0020458
Loading maneuver chart data...
Computing Atmospheric mass density...
Loading historical data...
Loading historical data...
Loading historical data...
Loading historical data...
Loading historical data...
Loading historical data...
Loading historical data...

Documentation

Showing up to 5 results
|